Regional Weather Roundup
Issued by NWS

Home | Current Version | Previous Version | Graphics & Text | Print | Product List | Glossary On
Versions: 1 2 3 4 5 6 7 8 9 10 11 12 13 14 15 16 17 18 19 20 21 22 23 24 25 26 27 28 29 30 31 32 33 34 35 36 37 38 39 40 41 42 43 44 45 46 47 48 49 50
000
ASUS43 KMKX 290200
RWRWI

WISCONSIN REGIONAL WEATHER ROUNDUP
NATIONAL WEATHER SERVICE MILWAUKEE/SULLIVAN WI
800 PM CST FRI NOV 28 2014

NOTE: "FAIR" INDICATES FEW OR NO CLOUDS BELOW 12,000 FEET WITH NO
SIGNIFICANT WEATHER AND/OR OBSTRUCTIONS TO VISIBILITY.

WIZ001-002-006>008-014>016-023>028-290300-
NORTHWEST WISCONSIN

CITY           SKY/WX    TMP DP  RH WIND       PRES   REMARKS
SUPERIOR ARPT  CLOUDY    19  13  78 SE3       29.88F
ASHLAND        CLOUDY    18  12  77 SE3       29.88F
HAYWARD        MOCLDY    17  11  77 SE6       29.83F WCI   9
SIREN          PTCLDY    17  13  82 CALM      29.84F
CUMBERLAND     PTCLDY    18  12  79 SE7       29.81F WCI   8
RICE LAKE      PTCLDY    19  14  82 E6        29.84F WCI  11
CHETEK         PTCLDY    19  15  84 E5        29.84F WCI  12
LADYSMITH      CLOUDY    18  14  85 E6        29.86F WCI  10
EAU CLAIRE     NOT AVBL
MENOMONIE      MOCLDY    23  18  80 E7        29.83F WCI  15
NEW RICHMOND   MOCLDY    19  15  81 E3        29.83S
OSCEOLA        CLOUDY    21  17  85 SE8       29.84F WCI  12
$$

WIZ003>005-009-010-017-018-290300-
NORTH CENTRAL WISCONSIN

CITY           SKY/WX    TMP DP  RH WIND       PRES   REMARKS
MANITOWISH WTR CLOUDY    14  11  90 SE5       29.84F WCI   6
ARBOR VITAE    CLOUDY    17  13  87 SE3       29.85S
WOODRUFF       CLOUDY    17  13  87 SE3       29.85S
RHINELANDER    CLOUDY    14  11  87 SE3       29.86S
EAGLE RIVER    CLOUDY    13   9  82 CALM      29.85F
LAND O LAKES   CLOUDY    14  11  87 S5        29.85F WCI   7
PHILLIPS       CLOUDY    15  12  85 SE6       29.85F WCI   7
TOMAHAWK       CLOUDY    15  12  88 CALM      29.87S
MEDFORD        CLOUDY    17  14  89 CALM      29.85R
MERRILL        MOCLDY    15  13  90 CALM      29.87S
$$

WIZ029-030-035-036-043>047-290300-
CENTRAL WISCONSIN

CITY           SKY/WX    TMP DP  RH WIND       PRES   REMARKS
WAUSAU         MOCLDY    18  14  84 E6        29.86S WCI  10
MOSINEE        MOCLDY    18  18 100 E6        29.87F WCI   9
MARSHFIELD     MOCLDY    21  16  81 E5        29.86S WCI  15
STEVENS POINT  CLOUDY    19  16  88 E3        29.89F
WAUPACA        MOCLDY    24  20  83 CALM      29.91F
WAUTOMA        NOT AVBL
WISC RAPIDS    MOCLDY    22  16  78 SE6       29.88F WCI  14
CAMP DOUGLAS   NOT AVBL
$$

WIZ011>013-019>022-031-037>040-048>050-290300-
NORTHEAST WISCONSIN

CITY           SKY/WX    TMP DP  RH WIND       PRES   REMARKS
ANTIGO         MOCLDY    13  11  92 SE8       29.86F WCI   2
SHAWANO        CLOUDY    22  19  87 NE3       29.93S
OCONTO         CLOUDY    21  21  98 CALM      29.94S
STURGEON BAY   CLOUDY    25  21  86 CALM      29.94R
GREEN BAY      CLOUDY    26  23  88 CALM      29.92F FOG
MANITOWOC      NOT AVBL
APPLETON       CLOUDY    25  19  80 SE7       29.90F WCI  17
CLINTONVILLE   CLOUDY    21  19  93 CALM      29.91F
OSHKOSH        CLOUDY    27  20  75 MISG      29.91F
$$

WIZ032>034-041-042-053>061-290300-
SOUTHWEST WISCONSIN

CITY           SKY/WX    TMP DP  RH WIND       PRES   REMARKS
LA CROSSE      CLOUDY    27  19  72 SE7       29.85F WCI  19
SPARTA         MOCLDY    25  20  83 E3        29.87F
VIROQUA        CLOUDY    24  21  89 SE8       29.83F WCI  15
BOSCOBEL       CLOUDY    27  21  78 N3        29.88F
PRAIRIE DU CHI CLOUDY    28  22  77 SE5       29.86F WCI  23
PLATTEVILLE    MOCLDY    29  26  90 CALM      29.86F
$$

WIZ056-057-062-063-064-067-068-290300-
SOUTH CENTRAL WISCONSIN

CITY           SKY/WX    TMP DP  RH WIND       PRES   REMARKS
REEDSBURG      CLOUDY    25  22  89 CALM      29.88R
BARABOO/DELLS  CLOUDY    25  22  89 NE3       29.88R
LONE ROCK      NOT AVBL
MINERAL POINT  CLOUDY    30  27  86 SE6       29.85F WCI  24
MADISON        CLOUDY    27  23  85 SE6       29.88F WCI  20
MIDDLETON      CLOUDY    29  24  84 SE5       29.88F WCI  23
WATERTOWN      CLOUDY    28  26  93 SE6       29.89F WCI  21
MONROE         CLOUDY    32  30  93 SE8       29.86F WCI  25
JANESVILLE     PTCLDY    34  30  86 S5        29.90S WCI  30
$$

WIZ051-052-058>065-066-070>072-290300-
SOUTHEAST WISCONSIN

CITY           SKY/WX    TMP DP  RH WIND       PRES   REMARKS
MILWAUKEE      FLURRIES  32  26  78 S10       29.93S WCI  24
WAUKESHA       CLOUDY    27  23  86 SE12      29.93F WCI  16
MILWAUKEE/TIMM CLOUDY    30  25  80 S7        29.93F WCI  23
RACINE         CLOUDY    33  27  78 S13       29.94F WCI  24
BURLINGTON     CLOUDY    29  26  88 CALM      29.93S
KENOSHA        CLOUDY    31  26  82 S7        29.93F WCI  24
FOND DU LAC    CLOUDY    27  20  75 S3        29.90F
SHEBOYGAN      CLOUDY    29  23  78 S8        29.92F WCI  21
WEST BEND      MIX PCPN  28  23  80 SE5       29.92F WCI  23
JUNEAU         MIX PCPN  27  24  87 SE10      29.89F WCI  18
$$

LSZ147-162-290300-
LAKE SUPERIOR

STATION/POSITION TIME  TEMP    WIND        PRES    WAVE
                       AIR SEA DIR/SP/G            HT/PER
                 (UTC) (F)     (DEG/KT/KT) (MB)    (FT/S)
DEVILS ISLAND    0100   22     140/  8/ 10 1013.7F
PORT WING        0100   18     110/  2/  4 1012.9F
SAXON HARBOR     0100   19      CALM  /  4 1012.9F
$$

LMZ867-665-643>646-290300-
LAKE MICHIGAN

STATION/POSITION TIME  TEMP    WIND        PRES    WAVE
                       AIR SEA DIR/SP/G            HT/PER
                 (UTC) (F)     (DEG/KT/KT) (MB)    (FT/S)
CHAMBERS ISLAND  0100   29     140/  3/  8 1013.9F
N MID LAKE BUOY  0050   31 42  170/ 19/ 23 1015.6F   4/ 5
NORTHPORT PIER   0121   31     150/ 15/ 24 1013.9F
SISTER BAY       0013          120/  7/  8   N/A
KEWAUNEE LAKESHO 0100   27     250/  6/  9 1013.3F
SHEBOYGAN LAKESH 0100   33 35  190/ 14/ 18 1015.1F
PORT WASHINGTON  0100   32     240/  7/ 17 1015.6R
MILWAUKEE LAKESH 0100   32     180/ 12/ 14   N/A
S MID LAKE BUOY  0050   35 42  180/ 23/ 27 1015.5F   6/ 6
KENOSHA   LAKESH 0100   34     180/ 13/ 21 1013.9F
$$

TC  - TEMPERATURE IN CELSIUS
VSB - VISIBILITY IN STATUTE MILES
WCI - WIND CHILL INDEX
HX  - HEAT INDEX



USA.gov is the U.S. government's official web portal to all federal, state and local government web resources and services.